| time (UTC) | temp C | wind direction | speed KPH | gust KPH | rain 1hr cm | rain 24hr cm | rain mn cm | humidity % | barometer mb |
| 20260507171509 | 13 | 360 | 0.0 | 4.8 | 0.00 | 0.00 | 0.00 | 71 | 1020.8 |
| 20260507170013 | 13 | 360 | 0.0 | 3.2 | 0.00 | 0.00 | 0.00 | 73 | 1020.7 |
| 20260507164517 | 13 | 360 | 1.6 | 4.8 | 0.00 | 0.00 | 0.00 | 73 | 1020.7 |
| 20260507163003 | 13 | 360 | 1.6 | 4.8 | 0.00 | 0.00 | 0.00 | 74 | 1020.7 |
| 20260507161504 | 12 | 360 | 0.0 | 4.8 | 0.00 | 0.00 | 0.00 | 74 | 1020.6 |
| 20260507160014 | 12 | 360 | 0.0 | 1.6 | 0.00 | 0.00 | 0.00 | 76 | 1020.6 |
| 20260507154519 | 12 | 360 | 0.0 | 3.2 | 0.00 | 0.00 | 0.00 | 76 | 1020.6 |
| 20260507153025 | 12 | 360 | 0.0 | 4.8 | 0.00 | 0.00 | 0.00 | 75 | 1020.8 |
| 20260507151505 | 11 | 360 | 0.0 | 3.2 | 0.00 | 0.00 | 0.00 | 76 | 1020.8 |
| 20260507150007 | 11 | 360 | 0.0 | 3.2 | 0.00 | 0.00 | 0.00 | 77 | 1020.8 |
| 20260507144512 | 11 | 360 | 0.0 | 3.2 | 0.00 | 0.00 | 0.00 | 77 | 1020.8 |
| 20260507143018 | 11 | 360 | 0.0 | 4.8 | 0.00 | 0.00 | 0.00 | 78 | 1020.8 |
| 20260507141523 | 11 | 360 | 0.0 | 3.2 | 0.00 | 0.00 | 0.00 | 79 | 1020.7 |
| 20260507140017 | 11 | 360 | 0.0 | 1.6 | 0.00 | 0.00 | 0.00 | 78 | 1020.5 |
| 20260507134510 | 11 | 360 | 0.0 | 3.2 | 0.00 | 0.00 | 0.00 | 79 | 1020.4 |
| 20260507133012 | 11 | 360 | 0.0 | 1.6 | 0.00 | 0.00 | 0.00 | 78 | 1020.5 |
| 20260507131534 | 11 | 360 | 0.0 | 1.6 | 0.00 | 0.00 | 0.00 | 79 | 1020.5 |
| 20260507130023 | 11 | 360 | 0.0 | 1.6 | 0.00 | 0.00 | 0.00 | 77 | 1020.6 |
| 20260507124507 | 11 | 360 | 0.0 | 1.6 | 0.00 | 0.00 | 0.00 | 78 | 1020.6 |
| 20260507123013 | 11 | 360 | 0.0 | 1.6 | 0.00 | 0.00 | 0.00 | 78 | 1020.5 |
| 20260507121514 | 11 | 360 | 0.0 | 1.6 | 0.00 | 0.00 | 0.00 | 78 | 1020.6 |
| 20260507120029 | 11 | 360 | 0.0 | 0.0 | 0.00 | 0.00 | 0.00 | 80 | 1020.6 |
| 20260507114525 | 11 | 360 | 0.0 | 1.6 | 0.00 | 0.00 | 0.00 | 80 | 1020.7 |
| 20260507113007 | 12 | 360 | 0.0 | 1.6 | 0.00 | 0.00 | 0.00 | 81 | 1020.8 |
| 20260507111512 | 12 | 360 | 0.0 | 1.6 | 0.00 | 0.00 | 0.00 | 79 | 1020.8 |
| 20260507110018 | 12 | 360 | 0.0 | 1.6 | 0.00 | 0.00 | 0.00 | 80 | 1021.0 |
| 20260507104520 | 12 | 360 | 0.0 | 3.2 | 0.00 | 0.00 | 0.00 | 79 | 1021.0 |
| 20260507103026 | 12 | 360 | 0.0 | 3.2 | 0.00 | 0.00 | 0.00 | 80 | 1021.0 |
| 20260507101507 | 12 | 360 | 0.0 | 1.6 | 0.00 | 0.00 | 0.00 | 80 | 1021.1 |
| 20260507100028 | 12 | 360 | 0.0 | 0.0 | 0.00 | 0.00 | 0.00 | 79 | 1021.2 |
| 20260507094519 | 12 | 360 | 0.0 | 0.0 | 0.00 | 0.00 | 0.00 | 79 | 1021.3 |
| 20260507093027 | 12 | 360 | 0.0 | 1.6 | 0.00 | 0.00 | 0.00 | 79 | 1021.4 |
| 20260507091534 | 12 | 360 | 0.0 | 1.6 | 0.00 | 0.00 | 0.00 | 79 | 1021.5 |
| 20260507090009 | 12 | 360 | 0.0 | 0.0 | 0.00 | 0.00 | 0.00 | 79 | 1021.6 |
| 20260507084534 | 12 | 360 | 0.0 | 0.0 | 0.00 | 0.00 | 0.00 | 78 | 1021.7 |
| 20260507083023 | 12 | 360 | 0.0 | 1.6 | 0.00 | 0.00 | 0.00 | 77 | 1021.6 |
| 20260507081524 | 13 | 360 | 0.0 | 1.6 | 0.00 | 0.00 | 0.00 | 78 | 1021.7 |
| 20260507080026 | 13 | 5 | 0.0 | 3.2 | 0.00 | 0.00 | 0.00 | 78 | 1021.6 |
| 20260507074514 | 13 | 360 | 0.0 | 3.2 | 0.00 | 0.00 | 0.00 | 77 | 1021.6 |
| 20260507073020 | 13 | 360 | 0.0 | 1.6 | 0.00 | 0.00 | 0.00 | 78 | 1021.6 |
| 20260507071522 | 13 | 360 | 0.0 | 0.0 | 0.00 | 0.00 | 0.00 | 78 | 1021.4 |
| 20260507070013 | 13 | 360 | 0.0 | 1.6 | 0.00 | 0.00 | 0.00 | 77 | 1021.5 |
| 20260507064508 | 13 | 360 | 0.0 | 3.2 | 0.00 | 0.00 | 0.00 | 77 | 1021.5 |
| 20260507063016 | 13 | 360 | 0.0 | 3.2 | 0.00 | 0.00 | 0.00 | 77 | 1021.5 |
| 20260507061520 | 13 | 360 | 0.0 | 1.6 | 0.00 | 0.00 | 0.00 | 77 | 1021.5 |
| 20260507060032 | 14 | 360 | 0.0 | 3.2 | 0.00 | 0.00 | 0.00 | 76 | 1021.5 |
| 20260507054507 | 14 | 360 | 0.0 | 4.8 | 0.00 | 0.00 | 0.00 | 76 | 1021.5 |
| 20260507053012 | 15 | 360 | 0.0 | 4.8 | 0.00 | 0.00 | 0.00 | 77 | 1021.5 |
| 20260507051516 | 15 | 360 | 0.0 | 3.2 | 0.00 | 0.00 | 0.00 | 78 | 1021.4 |
| 20260507050046 | 15 | 360 | 0.0 | 1.6 | 0.00 | 0.00 | 0.00 | 81 | 1021.4 |
| 20260507044525 | 15 | 360 | 0.0 | 0.0 | 0.00 | 0.00 | 0.00 | 81 | 1021.3 |
| 20260507043006 | 15 | 360 | 0.0 | 0.0 | 0.00 | 0.00 | 0.00 | 82 | 1021.1 |
| 20260507041514 | 15 | 360 | 0.0 | 0.0 | 0.00 | 0.00 | 0.00 | 81 | 1021.1 |
| 20260507040021 | 16 | 360 | 0.0 | 0.0 | 0.00 | 0.00 | 0.00 | 79 | 1020.9 |
| 20260507034526 | 16 | 360 | 0.0 | 0.0 | 0.00 | 0.00 | 0.00 | 77 | 1020.6 |
| 20260507033031 | 17 | 360 | 0.0 | 0.0 | 0.00 | 0.00 | 0.00 | 75 | 1020.4 |
| 20260507031510 | 17 | 360 | 0.0 | 1.6 | 0.00 | 0.00 | 0.00 | 75 | 1020.2 |
| 20260507030014 | 17 | 360 | 0.0 | 3.2 | 0.00 | 0.00 | 0.00 | 73 | 1020.0 |
| 20260507024520 | 18 | 360 | 0.0 | 0.0 | 0.00 | 0.00 | 0.00 | 76 | 1019.9 |
| 20260507023025 | 18 | 360 | 0.0 | 1.6 | 0.00 | 0.00 | 0.00 | 74 | 1019.7 |
| 20260507021543 | 18 | 360 | 0.0 | 0.0 | 0.00 | 0.00 | 0.00 | 70 | 1019.8 |
| 20260507020019 | 18 | 360 | 0.0 | 1.6 | 0.00 | 0.00 | 0.00 | 70 | 1019.8 |
| 20260507014520 | 18 | 360 | 0.0 | 1.6 | 0.00 | 0.00 | 0.00 | 69 | 1019.9 |
| 20260507013021 | 19 | 360 | 0.0 | 1.6 | 0.00 | 0.00 | 0.00 | 68 | 1019.9 |
| 20260507011529 | 19 | 360 | 0.0 | 3.2 | 0.00 | 0.00 | 0.00 | 65 | 1020.0 |
| 20260507010037 | 19 | 360 | 0.0 | 1.6 | 0.00 | 0.00 | 0.00 | 66 | 1020.1 |
| 20260507004516 | 19 | 360 | 0.0 | 3.2 | 0.00 | 0.00 | 0.00 | 66 | 1020.2 |
| 20260507003020 | 19 | 360 | 0.0 | 3.2 | 0.00 | 0.00 | 0.00 | 65 | 1020.2 |
| 20260507001524 | 19 | 360 | 1.6 | 4.8 | 0.00 | 0.00 | 0.00 | 65 | 1020.1 |
| 20260507000033 | 19 | 360 | 0.0 | 4.8 | 0.00 | 0.00 | 0.00 | 66 | 1020.1 |
| 20260506234528 | 19 | 360 | 0.0 | 3.2 | 0.00 | 0.00 | 0.00 | 68 | 1020.2 |
| 20260506233016 | 19 | 360 | 0.0 | 4.8 | 0.00 | 0.00 | 0.00 | 68 | 1020.2 |
| 20260506231524 | 19 | 360 | 3.2 | 4.8 | 0.00 | 0.00 | 0.00 | 67 | 1020.2 |
| 20260506230022 | 19 | 360 | 0.0 | 4.8 | 0.00 | 0.00 | 0.00 | 69 | 1020.3 |
| 20260506224526 | 18 | 360 | 0.0 | 4.8 | 0.00 | 0.00 | 0.00 | 69 | 1020.5 |
| 20260506223026 | 19 | 360 | 1.6 | 3.2 | 0.00 | 0.00 | 0.00 | 66 | 1020.7 |
| 20260506221518 | 20 | 360 | 0.0 | 4.8 | 0.00 | 0.00 | 0.00 | 65 | 1020.6 |
| 20260506220003 | 20 | 9 | 0.0 | 3.2 | 0.00 | 0.00 | 0.00 | 67 | 1020.9 |
| 20260506214508 | 19 | 360 | 3.2 | 6.4 | 0.00 | 0.00 | 0.00 | 70 | 1020.8 |
| 20260506213005 | 18 | 360 | 1.6 | 8.0 | 0.00 | 0.00 | 0.00 | 71 | 1020.8 |
| 20260506211506 | 18 | 360 | 1.6 | 6.4 | 0.00 | 0.00 | 0.00 | 72 | 1020.9 |
| 20260506210007 | 17 | 360 | 0.0 | 3.2 | 0.00 | 0.00 | 0.00 | 77 | 1020.9 |
| 20260506204503 | 16 | 360 | 0.0 | 4.8 | 0.00 | 0.00 | 0.00 | 78 | 1021.2 |
| 20260506203019 | 16 | 360 | 0.0 | 3.2 | 0.00 | 0.00 | 0.00 | 77 | 1021.5 |
| 20260506201509 | 16 | 360 | 0.0 | 4.8 | 0.00 | 0.00 | 0.00 | 78 | 1021.5 |
| 20260506200008 | 16 | 360 | 0.0 | 3.2 | 0.00 | 0.00 | 0.00 | 79 | 1021.5 |
| 20260506194511 | 16 | 360 | 1.6 | 4.8 | 0.00 | 0.00 | 0.00 | 77 | 1021.3 |
| 20260506193004 | 15 | 360 | 0.0 | 3.2 | 0.00 | 0.00 | 0.00 | 81 | 1021.4 |
| 20260506191511 | 15 | 360 | 0.0 | 4.8 | 0.00 | 0.00 | 0.00 | 79 | 1021.5 |
| 20260506190008 | 15 | 360 | 0.0 | 1.6 | 0.00 | 0.00 | 0.00 | 82 | 1021.6 |
| 20260506184509 | 15 | 360 | 0.0 | 1.6 | 0.00 | 0.00 | 0.00 | 81 | 1021.6 |
| 20260506183010 | 15 | 360 | 0.0 | 3.2 | 0.00 | 0.00 | 0.00 | 81 | 1021.5 |
| 20260506181509 | 15 | 360 | 0.0 | 3.2 | 0.00 | 0.00 | 0.00 | 81 | 1021.4 |
| 20260506180009 | 15 | 360 | 0.0 | 4.8 | 0.00 | 0.00 | 0.00 | 81 | 1021.3 |
| 20260506174509 | 15 | 360 | 0.0 | 1.6 | 0.00 | 0.00 | 0.00 | 82 | 1021.4 |
| 20260506173012 | 14 | 360 | 0.0 | 4.8 | 0.00 | 0.00 | 0.00 | 83 | 1021.4 |